User: anonymous   Login
Location: Bergnershof
(48.9468°N, 10.9431°E)
Time: 02:40:18
(UTC+00:00)
Language:

CSL-04 Rocket - Orbit

View from above orbital plane
View from above orbital plane
View from above satellite
View from above satellite

Ground track
Ground track

The orbit data is extracted from the following two-line orbital elements,

1 25732U 99025C   21136.94950506 -.00000025  00000-0  96448-5 0  9999
2 25732  98.9047 173.3315 0036938 341.2717  82.2061 14.17692469139219
Epoch (UTC): 16 May 2021 22:47:17
Eccentricity: 0.0036938
inclination: 98.9047°
perigee height: 806 km
apogee height: 860 km
right ascension of ascending node: 173.3315°
argument of perigee: 341.2717°
revolutions per day: 14.17692469
mean anomaly at epoch: 82.2061°
orbit number at epoch: 13921

The dashed part of the orbit path shows where the satellite is in the earth's shadow,  

DLR